AU298 Weather Reports


Display with metric or nautical units.
time (UTC)temp
F
wind
direction
speed
MPH
gust
MPH
rain 1hr
in
rain 24hr
in
rain mn
in
humidity
%
barometer
mb
20260906203512 81 259 4.0 0.0 0.00 0.01 0.01 67 1021.1
20260906202512 81 212 0.0 1.0 0.00 0.01 0.01 65 1021.4
20260906202012 82 134 2.0 1.0 0.00 0.01 0.01 66 1021.5
20260906201011 81 200 1.0 1.0 0.00 0.01 0.01 66 1021.4
20260906200511 82 239 0.0 1.0 0.00 0.01 0.01 68 1021.4
20260906200011 81 167 3.0 1.0 0.00 0.01 0.01 67 1021.4
20260906195511 82 162 1.0 0.0 0.00 0.01 0.01 67 1021.4
20260906195012 81 142 0.0 0.0 0.00 0.01 0.01 71 1021.5
20260906194512 80 142 0.0 0.0 0.00 0.01 0.01 68 1021.5
20260906194012 80 108 2.0 0.0 0.00 0.01 0.01 69 1021.4
20260906192512 80 143 4.0 0.0 0.00 0.01 0.01 71 1021.5
20260906192012 80 260 3.0 1.0 0.00 0.01 0.01 68 1021.6
20260906191512 80 215 2.0 1.0 0.00 0.01 0.01 69 1021.6
20260906191012 81 276 2.0 1.0 0.00 0.01 0.01 69 1021.7
20260906190512 80 153 0.0 1.0 0.00 0.01 0.01 69 1021.7
20260906190012 80 203 1.0 1.0 0.00 0.01 0.01 70 1021.8
20260906185511 79 233 1.0 1.0 0.00 0.01 0.01 70 1022.0
20260906185011 79 162 1.0 0.0 0.00 0.01 0.01 71 1022.0
20260906184512 78 257 3.0 0.0 0.00 0.01 0.01 73 1022.0
20260906184011 79 302 2.0 1.0 0.00 0.01 0.01 73 1022.0
20260906183511 79 195 0.0 1.0 0.00 0.01 0.01 74 1022.2
20260906183012 78 149 0.0 1.0 0.00 0.01 0.01 73 1022.3
20260906182512 78 151 1.0 1.0 0.00 0.01 0.01 73 1022.3
20260906182012 78 192 3.0 1.0 0.00 0.01 0.01 74 1022.5
20260906181512 77 258 1.0 1.0 0.00 0.01 0.01 75 1022.6
20260906181012 77 209 2.0 1.0 0.00 0.01 0.01 75 1022.7
20260906180512 78 201 0.0 1.0 0.00 0.01 0.01 73 1022.6
20260906180012 79 215 0.0 0.0 0.00 0.01 0.01 73 1022.6
20260906175512 79 259 2.0 0.0 0.00 0.01 0.01 72 1022.7
20260906175011 78 129 0.0 1.0 0.00 0.01 0.01 73 1022.9
20260906174512 78 128 0.0 1.0 0.00 0.01 0.01 74 1022.9
20260906174012 77 127 1.0 1.0 0.00 0.01 0.01 74 1023.0
20260906173511 77 255 2.0 1.0 0.00 0.01 0.01 73 1023.0
20260906173011 78 199 3.0 1.0 0.00 0.01 0.01 73 1023.1
20260906172511 77 156 1.0 1.0 0.00 0.01 0.01 75 1023.1
20260906171512 76 279 0.0 0.0 0.00 0.01 0.01 76 1023.2
20260906171012 76 224 2.0 0.0 0.00 0.01 0.01 75 1023.2
20260906170512 76 283 1.0 0.0 0.00 0.01 0.01 76 1023.3
20260906170012 76 244 4.0 0.0 0.00 0.01 0.01 76 1023.3
20260906165512 76 271 2.0 0.0 0.00 0.01 0.01 76 1023.4
20260906165012 75 206 2.0 1.0 0.00 0.01 0.01 76 1023.5
20260906164511 75 120 0.0 1.0 0.00 0.01 0.01 78 1023.4
20260906164011 75 278 0.0 0.0 0.00 0.01 0.01 77 1023.5
20260906163511 75 156 1.0 0.0 0.00 0.01 0.01 78 1023.4
20260906162512 74 179 0.0 0.0 0.00 0.01 0.01 77 1023.6
20260906160512 72 241 2.0 0.0 0.00 0.01 0.01 79 1023.7
20260906160012 72 236 0.0 0.0 0.00 0.01 0.01 78 1023.8
20260906155512 72 271 1.0 1.0 0.00 0.01 0.01 78 1023.8
20260906154511 71 227 3.0 1.0 0.00 0.01 0.01 78 1023.8
20260906153511 70 229 0.0 1.0 0.00 0.01 0.01 78 1023.7
20260906153012 70 188 3.0 1.0 0.00 0.01 0.01 79 1023.7
20260906152512 70 131 0.0 0.0 0.00 0.01 0.01 80 1023.8
20260906152012 69 146 1.0 0.0 0.00 0.01 0.01 80 1023.8
20260906151512 68 134 2.0 0.0 0.00 0.01 0.01 80 1023.9
20260906151012 68 197 0.0 0.0 0.00 0.01 0.01 81 1024.0
20260906150512 68 131 0.0 1.0 0.00 0.01 0.01 81 1023.9
20260906150012 67 212 2.0 1.0 0.00 0.01 0.01 81 1023.9
20260906145512 67 136 0.0 0.0 0.00 0.01 0.01 82 1024.0
20260906145012 66 191 0.0 0.0 0.00 0.01 0.01 82 1024.2
20260906144012 65 131 0.0 0.0 0.00 0.01 0.01 84 1024.3
20260906143512 64 133 1.0 0.0 0.00 0.01 0.01 84 1024.2
20260906143012 63 167 2.0 0.0 0.00 0.01 0.01 84 1024.0
20260906142511 63 155 0.0 0.0 0.00 0.01 0.01 85 1024.0
20260906142011 62 135 1.0 1.0 0.00 0.01 0.01 87 1024.0
20260906141512 62 142 3.0 1.0 0.00 0.01 0.01 88 1024.0
20260906141012 61 102 1.0 1.0 0.00 0.01 0.01 90 1024.0
20260906140512 61 131 0.0 1.0 0.00 0.01 0.01 91 1023.9
20260906140012 60 136 1.0 0.0 0.00 0.01 0.01 91 1024.1
20260906135512 60 145 0.0 0.0 0.00 0.01 0.01 92 1024.2
20260906135012 59 124 1.0 0.0 0.00 0.01 0.01 92 1024.4
20260906134512 59 160 0.0 0.0 0.00 0.01 0.01 92 1024.4
20260906133011 58 141 0.0 0.0 0.00 0.01 0.01 92 1024.2
20260906132511 58 136 0.0 0.0 0.00 0.01 0.01 92 1024.2
20260906132011 58 136 0.0 0.0 0.00 0.01 0.01 92 1024.4
20260906131511 58 136 0.0 0.0 0.00 0.01 0.01 92 1024.3
20260906131011 57 136 0.0 0.0 0.00 0.01 0.01 92 1024.3
20260906130013 57 135 0.0 0.0 0.00 0.01 0.01 92 1024.2
20260906125512 57 136 0.0 0.0 0.00 0.01 0.01 92 1024.3
20260906125012 57 136 0.0 0.0 0.00 0.01 0.01 92 1024.3
20260906124512 57 136 0.0 0.0 0.00 0.01 0.01 92 1024.1
20260906124011 56 136 0.0 0.0 0.00 0.01 0.01 92 1024.1
20260906123011 56 136 0.0 0.0 0.01 0.01 0.01 92 1023.9
20260906122511 56 136 0.0 0.0 0.01 0.01 0.01 92 1023.8
20260906122011 56 136 0.0 0.0 0.01 0.01 0.01 92 1023.9
20260906121511 56 176 0.0 0.0 0.01 0.01 0.01 92 1023.9
20260906121012 56 179 0.0 0.0 0.01 0.01 0.01 92 1023.9
20260906120512 56 134 0.0 0.0 0.01 0.01 0.01 92 1023.7
20260906120012 55 134 0.0 0.0 0.01 0.01 0.01 92 1023.8
20260906115512 55 134 0.0 0.0 0.01 0.01 0.01 92 1023.8
20260906114512 55 134 0.0 0.0 0.01 0.01 0.01 92 1023.6
20260906114011 55 134 0.0 0.0 0.01 0.01 0.01 92 1023.4
20260906113511 55 134 0.0 0.0 0.01 0.01 0.01 92 1023.3
20260906113011 55 134 0.0 0.0 0.00 0.00 0.00 92 1023.3
20260906112511 55 134 0.0 0.0 0.00 0.00 0.00 92 1023.3
20260906112011 55 134 0.0 0.0 0.00 0.00 0.00 92 1023.3
20260906111511 55 134 0.0 0.0 0.00 0.00 0.00 92 1023.2
20260906110012 55 134 0.0 0.0 0.00 0.00 0.00 92 1023.1
20260906105512 55 134 0.0 0.0 0.00 0.00 0.00 92 1023.1
20260906105012 55 134 0.0 0.0 0.00 0.00 0.00 92 1023.1
20260906104512 55 134 0.0 0.0 0.00 0.00 0.00 92 1023.0
20260906104012 55 134 0.0 0.0 0.00 0.00 0.00 92 1023.0
20260906103012 55 134 0.0 0.0 0.00 0.00 0.00 92 1023.1
20260906102512 55 134 0.0 0.0 0.00 0.00 0.00 92 1023.0
20260906102012 56 134 0.0 0.0 0.00 0.00 0.00 92 1023.0
20260906101511 56 134 0.0 0.0 0.00 0.00 0.00 92 1023.0
20260906101012 55 134 0.0 0.0 0.00 0.00 0.00 92 1023.0
20260906100512 55 134 0.0 0.0 0.00 0.00 0.00 92 1022.9
20260906095012 56 134 0.0 0.0 0.00 0.00 0.00 92 1022.5
20260906094511 55 134 0.0 0.0 0.00 0.00 0.00 92 1022.5
20260906094011 56 134 0.0 0.0 0.00 0.00 0.00 92 1022.5
20260906093511 56 134 0.0 0.0 0.00 0.00 0.00 92 1022.4
20260906093011 56 135 0.0 0.0 0.00 0.00 0.00 92 1022.4
20260906092512 56 153 0.0 0.0 0.00 0.00 0.00 92 1022.5
20260906092012 56 131 0.0 0.0 0.00 0.00 0.00 92 1022.5
20260906091012 56 136 0.0 0.0 0.00 0.00 0.00 91 1022.4
20260906090512 56 135 0.0 0.0 0.00 0.00 0.00 91 1022.6
20260906090012 56 136 1.0 0.0 0.00 0.00 0.00 91 1022.6
20260906085512 56 144 0.0 0.0 0.00 0.00 0.00 91 1022.6
20260906085012 56 127 0.0 0.0 0.00 0.00 0.00 91 1022.7
20260906084512 56 122 0.0 0.0 0.00 0.00 0.00 91 1022.8
20260906084011 56 122 0.0 0.0 0.00 0.00 0.00 91 1022.7
20260906083511 56 122 0.0 0.0 0.00 0.00 0.00 91 1022.8
20260906083011 57 122 0.0 0.0 0.00 0.00 0.00 91 1023.0
20260906082511 57 122 0.0 0.0 0.00 0.00 0.00 91 1023.1
20260906082011 57 122 0.0 0.0 0.00 0.00 0.00 91 1023.0
20260906081512 57 122 0.0 0.0 0.00 0.00 0.00 91 1023.0
20260906081012 57 122 0.0 0.0 0.00 0.00 0.00 91 1023.1
20260906080512 57 122 0.0 0.0 0.00 0.00 0.00 91 1023.2
20260906075511 57 122 0.0 0.0 0.00 0.00 0.00 91 1023.2
20260906075011 57 122 0.0 0.0 0.00 0.00 0.00 91 1023.3
20260906074011 58 122 0.0 0.0 0.00 0.00 0.00 91 1023.4
20260906073511 58 122 0.0 0.0 0.00 0.00 0.00 91 1023.4
20260906073011 58 122 0.0 0.0 0.00 0.00 0.00 91 1023.3
20260906072511 58 122 0.0 0.0 0.00 0.00 0.00 91 1023.4
20260906072011 58 122 0.0 0.0 0.00 0.00 0.00 91 1023.3
20260906071512 58 122 0.0 0.0 0.00 0.00 0.00 91 1023.3
20260906071012 58 122 0.0 0.0 0.00 0.00 0.00 91 1023.4
20260906070512 58 148 0.0 0.0 0.00 0.00 0.00 91 1023.4
20260906070012 58 148 0.0 0.0 0.00 0.00 0.00 91 1023.5
20260906065512 59 148 0.0 0.0 0.00 0.00 0.00 91 1023.6
20260906065011 59 148 0.0 0.0 0.00 0.00 0.00 91 1023.5
20260906064511 59 148 0.0 0.0 0.00 0.00 0.00 91 1023.7
20260906064011 59 148 0.0 0.0 0.00 0.00 0.00 91 1023.8
20260906063511 59 148 0.0 0.0 0.00 0.00 0.00 91 1023.8
20260906063011 59 148 0.0 0.0 0.00 0.00 0.00 91 1023.7
20260906062511 59 148 0.0 0.0 0.00 0.00 0.00 91 1023.7
20260906062011 59 148 0.0 0.0 0.00 0.00 0.00 91 1023.8
20260906061511 59 148 0.0 0.0 0.00 0.00 0.00 91 1023.7
20260906060512 59 148 0.0 0.0 0.00 0.00 0.00 91 1023.8
20260906060012 59 148 0.0 0.0 0.00 0.00 0.00 91 1023.5
20260906055512 60 148 0.0 0.0 0.00 0.00 0.00 91 1023.5
20260906054512 60 148 0.0 0.0 0.00 0.00 0.00 91 1023.5
20260906054012 60 148 0.0 0.0 0.00 0.00 0.00 91 1023.4
20260906053512 60 148 0.0 0.0 0.00 0.00 0.00 91 1023.5
20260906053012 60 148 0.0 0.0 0.00 0.00 0.00 91 1023.5
20260906052512 60 148 0.0 0.0 0.00 0.00 0.00 91 1023.5
20260906052012 60 148 0.0 0.0 0.00 0.00 0.00 91 1023.3
20260906051511 60 127 0.0 0.0 0.00 0.00 0.00 90 1023.3
20260906050511 60 165 3.0 0.0 0.00 0.00 0.00 90 1023.3
20260906050011 60 155 0.0 0.0 0.00 0.00 0.00 90 1023.3
20260906045511 60 128 0.0 0.0 0.00 0.00 0.00 90 1023.3
20260906045011 61 136 0.0 0.0 0.00 0.00 0.00 90 1023.4
20260906044512 61 149 0.0 0.0 0.00 0.00 0.00 90 1023.2
20260906044011 61 141 0.0 0.0 0.00 0.00 0.00 90 1023.2
20260906043012 61 103 0.0 0.0 0.00 0.00 0.00 90 1023.3
20260906042513 61 103 0.0 0.0 0.00 0.00 0.00 90 1023.2
20260906042012 61 134 0.0 0.0 0.00 0.00 0.00 90 1023.1
20260906041512 61 134 0.0 0.0 0.00 0.00 0.00 90 1023.1
20260906041012 61 196 0.0 0.0 0.00 0.00 0.00 90 1023.2
20260906040511 61 181 0.0 0.0 0.00 0.00 0.00 90 1022.9
20260906040012 61 141 0.0 0.0 0.00 0.00 0.00 90 1022.8
20260906035512 61 129 1.0 0.0 0.00 0.00 0.00 90 1022.7
20260906034011 62 138 0.0 0.0 0.00 0.00 0.00 89 1022.6
20260906033511 62 138 0.0 0.0 0.00 0.00 0.00 89 1022.6
20260906033011 62 138 0.0 0.0 0.00 0.00 0.00 89 1022.5
20260906032511 62 138 0.0 0.0 0.00 0.00 0.00 89 1022.4
20260906032012 63 138 0.0 0.0 0.00 0.00 0.00 88 1022.3
20260906031512 63 138 0.0 0.0 0.00 0.00 0.00 88 1022.5
20260906031012 63 138 0.0 0.0 0.00 0.00 0.00 88 1022.5
20260906030512 63 138 0.0 0.0 0.00 0.00 0.00 88 1022.6
20260906030012 63 206 0.0 0.0 0.00 0.00 0.00 88 1022.5
20260906025512 63 162 0.0 0.0 0.00 0.00 0.00 88 1022.6
20260906025012 63 162 0.0 0.0 0.00 0.00 0.00 88 1022.6
20260906024512 63 165 2.0 0.0 0.00 0.00 0.00 88 1022.3
20260906024011 64 238 0.0 0.0 0.00 0.00 0.00 88 1022.2
20260906023511 64 134 0.0 1.0 0.00 0.00 0.00 89 1022.2
20260906022511 64 162 0.0 0.0 0.00 0.00 0.00 89 1022.4
20260906022011 64 168 0.0 0.0 0.00 0.00 0.00 89 1022.5
20260906021512 64 148 0.0 0.0 0.00 0.00 0.00 89 1022.4
20260906020511 64 133 0.0 0.0 0.00 0.00 0.00 89 1022.2
20260906015511 64 130 0.0 0.0 0.00 0.00 0.00 89 1021.9
20260906015011 64 130 0.0 0.0 0.00 0.00 0.00 89 1021.8
20260906014512 64 130 0.0 0.0 0.00 0.00 0.00 89 1021.7
20260906014011 64 130 0.0 0.0 0.00 0.00 0.00 88 1021.7
20260906013511 64 130 0.0 0.0 0.00 0.00 0.00 88 1021.7
20260906013011 64 129 0.0 0.0 0.00 0.00 0.00 88 1021.7
20260906012511 65 130 0.0 0.0 0.00 0.00 0.00 87 1021.6
20260906011511 65 129 0.0 0.0 0.00 0.00 0.00 87 1021.6
20260906011011 65 129 0.0 0.0 0.00 0.00 0.00 86 1021.5
20260906010511 65 130 0.0 0.0 0.00 0.00 0.00 86 1021.5
20260906010012 66 130 0.0 0.0 0.00 0.00 0.00 85 1021.4
20260906005512 66 130 0.0 0.0 0.00 0.00 0.00 85 1021.3
20260906005011 66 130 0.0 0.0 0.00 0.00 0.00 84 1021.3
20260906004511 67 130 0.0 0.0 0.00 0.00 0.00 83 1021.3
20260906004011 67 130 0.0 0.0 0.00 0.00 0.00 83 1021.3
20260906003012 68 130 0.0 0.0 0.00 0.00 0.00 81 1021.2
20260906002512 69 129 0.0 0.0 0.00 0.00 0.00 81 1021.1
20260906001512 69 129 0.0 0.0 0.00 0.00 0.00 79 1021.0
20260906001012 71 153 0.0 0.0 0.00 0.00 0.00 77 1021.1
20260906000511 72 138 0.0 0.0 0.00 0.00 0.00 77 1021.3
20260906000011 71 149 0.0 0.0 0.00 0.00 0.00 78 1021.1
20260905235511 71 128 0.0 0.0 0.00 0.00 0.00 78 1021.1
20260905235011 71 127 0.0 0.0 0.00 0.00 0.00 78 1021.2
20260905234011 70 144 0.0 1.0 0.00 0.00 0.00 79 1021.2
20260905233511 70 131 0.0 0.0 0.00 0.00 0.00 80 1021.3
20260905233011 70 130 2.0 0.0 0.00 0.00 0.00 79 1021.4
20260905232511 69 82 1.0 0.0 0.00 0.00 0.00 81 1021.2
20260905231511 68 84 0.0 1.0 0.00 0.00 0.00 81 1021.3
20260905231012 69 136 0.0 1.0 0.00 0.00 0.00 80 1021.5
20260905230511 69 131 0.0 1.0 0.00 0.00 0.00 79 1021.4
20260905230011 70 131 0.0 1.0 0.00 0.00 0.00 79 1021.4
20260905225011 70 142 0.0 1.0 0.00 0.00 0.00 79 1021.6
20260905224511 70 144 0.0 0.0 0.00 0.00 0.00 80 1021.3
20260905224012 69 74 0.0 1.0 0.00 0.00 0.00 81 1021.6
20260905223012 69 127 2.0 0.0 0.00 0.00 0.00 81 1021.6
20260905222512 69 139 0.0 0.0 0.00 0.00 0.00 81 1021.7
20260905222012 69 127 1.0 0.0 0.00 0.00 0.00 81 1021.7
20260905221512 69 139 0.0 0.0 0.00 0.00 0.00 80 1021.8
20260905221012 70 174 0.0 0.0 0.00 0.00 0.00 80 1021.9
20260905220511 69 298 0.0 0.0 0.00 0.00 0.00 80 1021.9
20260905215511 70 136 0.0 0.0 0.00 0.00 0.00 81 1021.9
20260905215011 70 143 0.0 0.0 0.00 0.00 0.00 80 1021.9
20260905214511 69 58 0.0 0.0 0.00 0.00 0.00 81 1021.9
20260905214011 69 58 0.0 0.0 0.00 0.00 0.00 81 1022.0
20260905213511 69 126 0.0 0.0 0.00 0.00 0.00 80 1022.1
20260905213012 69 138 1.0 0.0 0.00 0.00 0.00 80 1022.3
20260905212512 69 109 0.0 0.0 0.00 0.00 0.00 81 1022.3
20260905211011 69 211 0.0 0.0 0.00 0.00 0.00 81 1022.6
20260905210511 69 139 0.0 0.0 0.00 0.00 0.00 81 1022.5
20260905210011 69 140 0.0 0.0 0.00 0.00 0.00 82 1022.4
20260905205512 69 140 0.0 0.0 0.00 0.00 0.00 82 1022.6
20260905204512 69 60 0.0 0.0 0.00 0.00 0.00 82 1022.9
20260905204011 69 59 0.0 0.0 0.00 0.00 0.00 81 1022.8